Location: ???? ??
(33.2474°N, 35.5489°E)
Time: 11:15:48
(UTC+00:00)

Daily predictions for brighter satellites

Satellite Brightness Start Highest point End
(mag) Time Altitude Azimuth Time Altitude Azimuth Time Altitude Azimuth
Cosmos 2084 3.7 16:35:15 10° NW 16:39:24 70° WSW 16:43:26 10° SSE
Cosmos 1777 Rocket 4.2 16:35:26 10° S 16:40:30 52° ESE 16:45:38 10° NNE
OAO 2 Rocket 3.6 16:35:48 10° W 16:41:03 72° N 16:46:11 10° E
Hubble Space Telescope 1.7 16:42:48 10° WSW 16:46:36 36° S 16:50:23 10° ESE
Cosmos 1315 Rocket 2.9 16:44:52 10° N 16:48:57 59° E 16:53:01 10° SSE
USA 186 2.8 16:47:53 10° ESE 16:49:36 18° ENE 16:51:22 10° NNE
Meteor 2-13 Rocket 4.5 16:44:16 10° N 16:50:26 69° E 16:56:33 10° SSE
ADEOS Rocket 4.0 16:49:18 10° NE 16:54:30 27° E 17:00:06 10° SSE
H-2A R/B 3.3 16:50:45 10° ESE 16:54:34 22° ENE 16:58:19 10° NNE
Cosmos 783 Rocket 4.5 16:49:22 10° NNW 16:54:35 73° ENE 16:59:49 10° SSE
Unknown 4.4 16:57:31 10° WNW 17:00:13 30° SW 17:02:53 10° SSE
Cosmos 2369 Rocket 3.4 16:56:01 10° NW 17:01:21 44° WSW 17:06:38 10° S
Ariane Rocket 3.5 16:56:41 10° S 17:01:40 62° WSW 17:06:41 10° NNW
Meteor 1-25 Rocket 4.2 16:57:20 10° S 17:02:58 72° E 17:08:44 10° NNE
Unknown 4.4 17:01:54 10° NNW 17:05:25 34° NE 17:08:02 15° E
Okean 1-7 3.1 17:01:11 10° N 17:05:33 60° E 17:09:53 10° SSE
Shenzhou-11 Module 3.5 17:06:14 10° W 17:08:46 31° NNW 17:11:18 10° NE
CENTAUR R/B 3.9 17:00:40 10° NW 17:08:49 58° WSW 17:17:17 10° S
Cosmos 220 Rocket 4.4 17:06:08 10° NNW 17:10:21 63° WSW 17:14:31 10° S
HJ-1C 4.3 17:08:37 10° S 17:11:49 49° W 17:15:02 10° NNW
Cosmos 2221 Rocket 4.3 17:10:10 10° NNE 17:14:08 32° E 17:16:55 17° SE
FREGAT/IRIS 2.9 17:11:52 10° S 17:14:38 60° W 17:17:24 10° NNW
Meteor 1-14 Rocket 4.3 17:09:43 10° S 17:15:39 70° E 17:21:35 10° NNE
SJ-11-01 4.2 17:12:40 10° SSE 17:17:20 75° ENE 17:22:03 10° N
GENESIS II 4.3 17:14:52 10° SSW 17:18:48 82° WNW 17:22:52 10° NNE
Unknown 4.2 17:20:48 10° WNW 17:24:02 40° SW 17:26:21 16° SSE
OAO 3 Rocket 3.3 17:23:39 10° W 17:28:31 74° N 17:31:57 19° ENE
Nadezhda 2 Rocket 4.4 17:27:30 10° N 17:33:38 73° E 17:39:47 10° SSE
Okean 1 3.3 17:30:30 10° N 17:34:25 58° E 17:36:26 26° SSE
Unknown 4.3 17:31:29 10° WNW 17:34:47 39° SW 17:36:38 21° S
Cosmos 44 3.1 17:32:26 10° NNW 17:36:46 57° ENE 17:38:30 32° ESE
CZ-2C R/B 4.1 17:33:44 10° NE 17:36:22 18° ENE 17:36:22 18° ENE
Unknown 4.4 17:33:46 10° NNW 17:37:39 38° NE 17:39:02 29° E
COSMOS 2406 3.3 17:32:41 10° S 17:38:09 51° ESE 17:43:38 10° NNE
Unknown 4.4 17:35:23 10° NNW 17:39:18 40° NE 17:40:38 30° E
Unknown 4.3 17:37:01 10° NNW 17:40:57 41° NE 17:42:11 32° E
SJ 16-02 3.6 17:45:04 11° NE 17:45:04 11° NE 17:45:16 10° NE
Unknown 4.3 17:38:38 10° NNW 17:42:34 41° NE 17:43:44 33° E
Unknown 4.2 17:40:23 10° NNW 17:44:21 44° NE 17:45:26 35° E
Unknown 4.3 17:41:50 10° NNW 17:45:46 41° NE 17:46:47 34° ENE
USA 234 3.4 17:42:11 26° ESE 17:46:00 62° NE 17:52:28 10° NW
ASTRO E2 2.7 17:43:12 10° W 17:47:08 63° S 17:47:58 48° SE
ASTEX 1 4.0 17:42:47 10° NNE 17:47:14 33° E 17:47:32 33° E
Delta 2 Rocket 4.1 17:44:23 10° SW 17:48:28 38° SSE 17:48:48 38° SE
Unknown 4.2 17:45:07 10° NNW 17:49:05 44° NE 17:49:58 38° ENE
SPOT 3 Rocket 4.0 17:44:29 10° S 17:49:36 61° WSW 17:54:44 10° NNW
Resurs 01 Rocket 1.9 17:48:52 40° ESE 17:49:52 48° ENE 17:54:07 10° N
ARGOS 3.0 17:47:12 23° SSE 17:50:40 79° ENE 17:56:02 10° N
Unknown 4.1 17:46:47 10° NNW 17:50:47 46° NE 17:51:36 40° ENE
DMSP B5D2-2 4.2 17:46:19 10° NNE 17:51:25 49° E 17:53:48 29° SSE
Unknown 3.9 17:48:35 10° NW 17:52:39 53° NE 17:53:24 46° E
Unknown 4.0 17:50:02 10° NW 17:54:04 49° NE 17:54:44 44° ENE
SJ-6B 4.0 17:51:42 11° SSW 17:55:11 40° W 17:58:57 10° NNW
Unknown 3.9 17:51:43 10° NW 17:55:46 52° NE 17:56:23 47° ENE
Unknown 3.8 17:55:02 10° NW 17:59:06 55° NE 17:59:34 52° ENE
Unknown 3.7 17:56:40 10° NW 18:00:45 58° NE 18:01:08 55° ENE
Unknown 3.7 17:58:20 10° NW 18:02:26 60° NE 18:02:46 57° ENE
Unknown 3.6 18:00:01 10° NW 18:04:07 62° NE 18:04:23 61° ENE
Unknown 3.6 18:01:38 10° NW 18:05:45 65° NE 18:05:57 64° ENE
Aureole 3 Rocket 3.9 18:10:33 31° NNE 18:10:33 31° NNE 18:12:26 10° NNE
CZ-2C R/B 2.8 18:08:33 58° ESE 18:09:09 64° ENE 18:13:51 10° N
Unknown 3.4 18:05:13 10° NW 18:09:23 83° NE 18:09:29 82° E
Unknown 3.4 18:06:52 10° NW 18:11:00 84° NE 18:11:02 84° ENE
Cosmos 1733 Rocket 3.5 18:09:00 19° SSW 18:12:01 60° W 18:16:17 10° N
Unknown 3.5 18:08:20 10° NW 18:12:26 79° NNE 18:12:26 79° NNE
Cosmos 2112 Rocket 4.5 18:07:36 10° N 18:12:30 41° ENE 18:12:30 41° ENE
Cosmos 1553 Rocket 4.3 18:07:41 10° SSW 18:13:51 68° W 18:20:10 10° N
Meteor 2-4 Rocket 3.5 18:08:35 10° N 18:13:54 66° E 18:14:42 58° SE
Unknown 3.5 18:09:55 10° NW 18:13:57 78° NNE 18:13:57 78° NNE
SL-08 R/B 4.4 18:08:56 10° N 18:15:19 89° WSW 18:18:22 33° S
Unknown 3.6 18:13:15 10° NW 18:17:09 78° NNW 18:17:09 78° NNW
Unknown 3.7 18:14:57 10° NW 18:18:46 75° NW 18:18:46 75° NW
Unknown 3.7 18:16:34 10° NW 18:20:20 73° NW 18:20:20 73° NW
Unknown 3.8 18:18:12 10° NW 18:21:55 70° WNW 18:21:55 70° WNW
Cosmos 1674 Rocket 3.8 18:18:57 10° N 18:22:33 58° NNE 18:22:33 58° NNE
OAO 2 Rocket 3.2 18:20:48 10° WNW 18:25:58 78° SSW 18:26:00 78° SSW
Hubble Space Telescope 3.1 18:24:38 10° WSW 18:25:56 15° SW 18:25:56 15° SW
Unknown 4.1 18:24:56 10° NW 18:28:22 57° WNW 18:28:22 57° WNW
Cosmos 44 Rocket 4.0 18:24:47 10° NNW 18:28:34 41° NNE 18:28:34 41° NNE
Unknown 4.2 18:26:35 10° NW 18:29:57 54° WNW 18:29:57 54° WNW
Unknown 4.3 18:28:13 10° NW 18:31:31 51° WNW 18:31:31 51° WNW
SL-24 R/B 4.4 18:32:47 70° SW 18:33:01 71° WSW 18:37:32 10° NNW
H-2A R/B 3.4 18:30:56 20° SSW 18:33:45 34° W 18:38:16 10° NNW
Unknown 4.4 18:29:54 10° NW 18:33:08 49° WNW 18:33:08 49° WNW
Meteor 1-11 Rocket 3.9 18:33:09 35° SSW 18:35:44 75° W 18:41:42 10° N
Cosmos 1898 Rocket 3.8 18:33:29 27° SSW 18:36:21 66° WNW 18:41:35 10° N
Cosmos 923 Rocket 4.2 18:34:04 10° NNW 18:39:21 66° WSW 18:39:46 63° SW
ADEOS Rocket 4.3 18:34:15 10° N 18:39:58 42° WNW 18:46:15 10° SW
Cosmos 1709 Rocket 4.2 18:35:40 10° N 18:41:04 53° ENE 18:41:04 53° ENE
Cosmos 2315 Rocket 3.9 18:46:32 76° E 18:46:32 76° E 18:52:50 10° N
Cosmos 2082 Rocket 3.7 18:50:03 25° NE 18:50:03 25° NE 18:52:24 10° NNE
Cosmos 1833 Rocket 2.9 18:47:59 60° NNE 18:47:59 60° NNE 18:52:34 10° NNE
MetOp-B 4.1 18:48:29 78° NW 18:48:29 78° NW 18:53:33 10° NNW
Cosmos 1680 Rocket 3.7 18:45:50 10° NNW 18:50:36 65° WNW 18:50:36 65° WNW
GP-B 4.2 18:48:11 10° N 18:51:17 42° NNW 18:51:17 42° NNW
Cosmos 1656 4.2 18:50:12 10° NNW 18:54:38 50° NNE 18:54:38 50° NNE
ERS-1 Rocket 4.2 18:58:35 34° NNE 18:58:35 34° NNE 19:01:32 10° N
Cosmos 1697 Rocket 3.9 19:01:22 10° N 19:04:59 33° NNE 19:04:59 33° NNE
BREEZE-M DEB (TANK) 4.2 19:05:59 10° NW 19:07:51 35° N 19:07:51 35° N
Milstar 3 Cent rocket 4.2 18:46:08 10° W 19:10:09 73° S 19:13:39 56° SE
Cosmos 2098 Rocket 4.3 19:07:12 10° NNW 19:10:56 51° NW 19:10:56 51° NW
CZ-2C R/B 3.6 19:12:51 10° N 19:17:50 43° WNW 19:17:52 43° WNW
SJ 16-02 3.6 19:21:59 23° NW 19:21:59 23° NW 19:24:19 10° N
Resurs 01 Rocket 4.4 19:26:27 11° W 19:26:34 11° W 19:28:01 10° WNW
USA 234 4.5 19:29:33 30° WSW 19:29:33 30° WSW 19:34:47 10° WNW
Cosmos 1980 Rocket 3.9 19:24:28 10° N 19:27:06 24° NNE 19:27:06 24° NNE
Terra 4.1 19:38:54 19° N 19:38:54 19° N 19:40:17 10° N
Cosmos 2297 Rocket 4.4 22:57:38 21° NE 22:57:38 21° NE 22:59:26 10° NNE
Resurs 1-4 Rocket 4.4 23:03:43 10° NNE 23:05:18 20° NNE 23:05:18 20° NNE
ATLAS 2AS CENTAUR R/B 3.7 23:08:56 10° NNW 23:16:05 42° NE 23:16:47 41° ENE
Cosmos 2237 Rocket 4.2 23:18:09 10° N 23:20:18 23° N 23:20:18 23° N
SL-16 R/B 4.3 23:27:51 10° N 23:32:08 22° ENE 23:34:41 16° E
SL-16 R/B 3.8 23:43:32 31° NNW 23:43:32 31° NNW 23:46:34 10° NNW
ARIANE 5 R/B 4.3 23:35:41 10° NNE 23:38:35 28° NE 23:38:35 28° NE
CZ-2D R/B 3.9 23:42:59 10° N 23:45:21 26° N 23:45:21 26° N
ADEOS II 3.5 23:45:53 10° NNE 23:49:13 34° NE 23:49:13 34° NE
Cosmos 2263 Rocket 4.5 23:55:15 14° ESE 23:56:28 15° E 23:59:32 10° ENE
